Regional Weather Roundup
Issued by NWS Jackson, KY

Home | Current Version | Previous Version | Graphics & Text | Print | Product List | Glossary On
Versions: 1 2 3 4 5 6 7 8 9 10 11 12 13 14 15 16 17 18 19 20 21 22 23 24 25 26 27 28 29 30 31 32 33 34 35 36 37 38 39 40 41 42 43 44 45 46 47 48 49 50
000
ASUS43 KJKL 201105
RWRJKL

EAST KENTUCKY HOURLY WEATHER ROUNDUP
NATIONAL WEATHER SERVICE JACKSON KY
600 AM EST SAT DEC 20 2014

NOTE: "FAIR" INDICATES FEW OR NO CLOUDS BELOW 12,000 FEET WITH
NO SIGNIFICANT WEATHER AND/OR OBSTRUCTIONS TO VISIBILITY.

* THESE REPORTS ARE NOT UNDER NWS QUALITY CONTROL AND MAY NOT
  REPORT WEATHER SUCH AS PRECIPITATION AND FOG.

KYZ079-080-083-085-087-088-110-112-115-119-120-201200
...EASTERN KENTUCKY...

CITY           SKY/WX    TMP DP  RH WIND       PRES   REMARKS
JACKSON        CLOUDY    28  22  78 CALM      30.21R
LONDON         CLOUDY    31  23  72 N3        30.21R
SOMERSET*      CLOUDY    30  25  80 N3        30.25R
MONTICELLO*    PTCLDY    31  27  85 CALM      30.25R
MIDDLESBORO*   CLOUDY    34  30  87 CALM      30.20S
HARLAN APT*    CLOUDY    32  28  86 CALM      30.18R
BLACK MTN*       N/A     32  30  93 SW1         N/A
PIKEVILLE APT* LGT SNOW  27  23  86 NE3       30.20R
BIG SANDY*     CLOUDY    27  24  85 NE3       30.22R
MOREHEAD APT*  CLOUDY    28  23  80 E5        30.25F WCI  23
$$

KYZ035-036-041-042-044-050-067-078-099-201200
...CENTRAL KENTUCKY...

CITY           SKY/WX    TMP DP  RH WIND       PRES   REMARKS
MT STERLING*   CLOUDY    28  27  93 CALM      30.26R
FLEMING/MASON* CLOUDY    27  24  86 NE5       30.26S WCI  22
DANVILLE*      CLOUDY    28  25  86 CALM      30.25R
RICHMOND*      CLOUDY    27  23  86 CALM      30.23R
LEXINGTON      CLOUDY    28  23  81 E6        30.24S WCI  22
FRANKFORT      CLOUDY    28  22  78 NE5       30.25R WCI  23
$$

KYZ091>093-OHZ055-061-077-WVZ005-015-034-035-042-201200
...SOUTHERN OHIO/WEST VIRGINIA...

CITY           SKY/WX    TMP DP  RH WIND       PRES   REMARKS
COVINGTON      CLOUDY    30  21  69 CALM      30.25R
COLUMBUS       CLOUDY    29  22  75 CALM      30.26S
DAYTON         CLOUDY    29  23  78 NE3       30.25F
WILMINGTON     CLOUDY    28  22  78 E3        30.24S
HUNTINGTON     CLOUDY    29  24  82 NE7       30.23F WCI  22
CHARLESTON     CLOUDY    29  23  78 CALM      30.24R
PINEVILLE*     CLOUDY    31  28  90 MISG      30.22S
BECKLEY        CLOUDY    26  21  81 E3        30.14S
BLUEFIELD      CLOUDY    27  22  81 CALM      30.14R
$$

VAZ002-007-008-TNZ017-027-036-066-071-201200
...SOUTHWEST VIRGINIA/EAST TENNESSEE...

CITY           SKY/WX    TMP DP  RH WIND       PRES   REMARKS
WISE*          LGT SNOW  32  27  80 E5        30.14R WCI  27
JONESVILLE*    CLOUDY    32  32 100 CALM      30.20R
ABINGDON*      LGT RAIN  37  30  75 E5        30.16R WCI  33
BRISTOL        LGT RAIN  35  30  82 CALM      30.17R
KNOXVILLE      CLOUDY    38  31  76 CALM      30.18R
OAK RIDGE      CLOUDY    38  32  79 CALM      30.19R
CROSSVILLE     CLOUDY    34  28  79 N3        30.15S
NASHVILLE      CLEAR     31  26  82 N5        30.24R WCI  26
$$

...KEY TO REMARKS...
VSB - VISIBILITY IN MILES
WCI - WIND CHILL INDEX
HX  - HEAT INDEX

$$


USA.gov is the U.S. government's official web portal to all federal, state and local government web resources and services.